Location: Erlenbrunn
(49.1717°N, 7.6142°E)
Time: 09:59:45
(UTC+00:00)

SL-16 R/B - Pass Details

Date: 25 November 2020
Orbit: 841 x 849 km, 71.0° (Epoch: 26 January)

Event Time Altitude Azimuth Distance (km) Brightness Sun altitude
Rises 16:32:49 0° 164° (SSE) 3,385 5.4 -8.9°
Reaches altitude 10° 16:35:46 10° 149° (SSE) 2,454 4.5 -9.3°
Maximum altitude 16:39:56 22° 101° (E) 1,779 3.4 -9.9°
Enters shadow 16:43:20 13° 59° (ENE) 2,262 3.8 -10.5°
